Time,TemperatureF,DewpointF,PressureIn,WindDirection,WindDirectionDegrees,WindSpeedMPH,WindSpeedGustMPH,Humidity,HourlyPrecipIn,Conditions,Clouds,dailyrainin,SoftwareType,DateUTC
2013-08-03 00:12:00,68.0,57.0,29.81,West,267,1.0,6.0,69,0.00,,,0.00,,2013-08-03 04:12:00,
2013-08-03 00:22:00,67.0,57.0,29.80,West,267,0.0,4.0,70,0.00,,,0.00,,2013-08-03 04:22:00,
2013-08-03 00:32:00,67.0,56.0,29.80,West,267,0.0,6.0,69,0.00,,,0.00,,2013-08-03 04:32:00,
2013-08-03 00:43:00,67.0,57.0,29.80,West,267,1.0,3.0,70,0.00,,,0.00,,2013-08-03 04:43:00,
2013-08-03 00:53:00,67.0,57.0,29.80,West,267,0.0,3.0,70,0.00,,,0.00,,2013-08-03 04:53:00,
2013-08-03 01:02:00,67.0,57.0,29.80,West,267,1.0,3.0,70,0.00,,,0.00,,2013-08-03 05:02:00,
2013-08-03 01:12:00,67.0,57.0,29.80,West,267,1.0,3.0,70,0.00,,,0.00,,2013-08-03 05:12:00,
2013-08-03 01:42:00,65.0,57.0,29.80,West,267,0.0,0.0,75,0.00,,,0.00,,2013-08-03 05:42:00,
2013-08-03 02:02:00,67.0,58.0,29.79,WSW,254,1.0,4.0,72,0.00,,,0.00,,2013-08-03 06:02:00,
2013-08-03 03:02:00,66.0,58.0,29.76,WSW,254,0.0,0.0,76,0.00,,,0.00,,2013-08-03 07:02:00,
2013-08-03 03:12:00,65.0,58.0,29.76,WSW,254,0.0,0.0,77,0.00,,,0.00,,2013-08-03 07:12:00,
2013-08-03 03:22:00,65.0,58.0,29.76,WSW,254,0.0,0.0,79,0.00,,,0.00,,2013-08-03 07:22:00,
2013-08-03 03:32:00,64.0,58.0,29.75,WSW,254,0.0,0.0,80,0.00,,,0.00,,2013-08-03 07:32:00,
2013-08-03 03:43:00,64.0,58.0,29.75,WSW,254,0.0,0.0,82,0.00,,,0.00,,2013-08-03 07:43:00,
2013-08-03 03:52:00,64.0,59.0,29.75,WSW,255,0.0,0.0,83,0.00,,,0.00,,2013-08-03 07:52:00,
2013-08-03 04:02:00,64.0,59.0,29.75,WSW,255,0.0,1.0,84,0.00,,,0.00,,2013-08-03 08:02:00,
2013-08-03 04:32:00,63.0,59.0,29.75,WSW,254,0.0,3.0,87,0.00,,,0.00,,2013-08-03 08:32:00,
2013-08-03 04:43:00,63.0,59.0,29.75,WSW,254,0.0,2.0,87,0.00,,,0.00,,2013-08-03 08:43:00,
2013-08-03 04:52:00,63.0,59.0,29.75,WSW,254,0.0,1.0,87,0.00,,,0.00,,2013-08-03 08:52:00,
2013-08-03 05:02:00,62.0,58.0,29.75,WSW,254,1.0,2.0,88,0.00,,,0.00,,2013-08-03 09:02:00,
2013-08-03 05:12:00,63.0,59.0,29.75,WSW,254,0.0,3.0,87,0.00,,,0.00,,2013-08-03 09:12:00,
2013-08-03 05:22:00,63.0,59.0,29.75,WSW,254,0.0,2.0,86,0.00,,,0.00,,2013-08-03 09:22:00,
2013-08-03 05:32:00,63.0,58.0,29.76,WSW,254,0.0,2.0,85,0.00,,,0.00,,2013-08-03 09:32:00,
2013-08-03 05:43:00,63.0,58.0,29.76,WSW,254,0.0,2.0,85,0.00,,,0.00,,2013-08-03 09:43:00,
2013-08-03 05:53:00,63.0,58.0,29.76,WSW,254,0.0,2.0,85,0.00,,,0.00,,2013-08-03 09:53:00,
2013-08-03 06:02:00,63.0,59.0,29.77,WSW,254,0.0,3.0,86,0.00,,,0.00,,2013-08-03 10:02:00,
2013-08-03 06:12:00,63.0,58.0,29.77,WSW,254,0.0,3.0,85,0.00,,,0.00,,2013-08-03 10:12:00,
2013-08-03 06:32:00,64.0,59.0,29.78,West,275,3.0,7.0,84,0.00,,,0.00,,2013-08-03 10:32:00,
2013-08-03 06:42:00,66.0,59.0,29.78,West,275,1.0,4.0,79,0.00,,,0.00,,2013-08-03 10:42:00,
2013-08-03 07:02:00,68.0,60.0,29.78,SE,130,1.0,4.0,75,0.00,,,0.00,,2013-08-03 11:02:00,
2013-08-03 07:12:00,68.0,61.0,29.78,SSW,194,0.0,3.0,77,0.00,,,0.00,,2013-08-03 11:12:00,
2013-08-03 07:22:00,68.0,60.0,29.78,West,260,0.0,10.0,76,0.00,,,0.00,,2013-08-03 11:22:00,
2013-08-03 07:32:00,68.0,60.0,29.79,WSW,257,1.0,7.0,76,0.00,,,0.00,,2013-08-03 11:32:00,
2013-08-03 07:43:00,68.0,60.0,29.79,NNE,24,0.0,5.0,76,0.00,,,0.00,,2013-08-03 11:43:00,
2013-08-03 07:53:00,67.0,60.0,29.80,NNE,24,0.0,2.0,79,0.00,,,0.00,,2013-08-03 11:53:00,
2013-08-03 08:03:00,67.0,61.0,29.80,NNE,24,0.0,0.0,81,0.00,,,0.00,,2013-08-03 12:03:00,
2013-08-03 08:33:00,67.0,61.0,29.80,NNE,24,0.0,2.0,80,0.00,,,0.00,,2013-08-03 12:33:00,
2013-08-03 08:43:00,67.0,61.0,29.80,NNE,24,0.0,0.0,81,0.00,,,0.00,,2013-08-03 12:43:00,
2013-08-03 09:02:00,68.0,61.0,29.81,West,276,0.0,0.0,79,0.00,,,0.00,,2013-08-03 13:02:00,
2013-08-03 09:12:00,68.0,61.0,29.81,West,276,0.0,2.0,78,0.00,,,0.00,,2013-08-03 13:12:00,
2013-08-03 09:22:00,68.0,61.0,29.81,West,276,0.0,3.0,78,0.00,,,0.00,,2013-08-03 13:22:00,
2013-08-03 09:33:00,69.0,61.0,29.81,West,269,0.0,6.0,77,0.00,,,0.00,,2013-08-03 13:33:00,
2013-08-03 09:43:00,69.0,61.0,29.81,WNW,286,1.0,7.0,75,0.00,,,0.00,,2013-08-03 13:43:00,
2013-08-03 09:52:00,69.0,61.0,29.81,WSW,256,2.0,5.0,75,0.00,,,0.00,,2013-08-03 13:52:00,
2013-08-03 10:02:00,70.0,61.0,29.80,WSW,254,2.0,11.0,73,0.00,,,0.00,,2013-08-03 14:02:00,
2013-08-03 10:13:00,70.0,61.0,29.80,WSW,257,0.0,11.0,73,0.00,,,0.00,,2013-08-03 14:13:00,
2013-08-03 10:43:00,71.0,61.0,29.80,West,259,3.0,7.0,70,0.00,,,0.00,,2013-08-03 14:43:00,
2013-08-03 10:52:00,71.0,60.0,29.80,West,261,4.0,9.0,69,0.00,,,0.00,,2013-08-03 14:52:00,
2013-08-03 11:02:00,71.0,61.0,29.80,South,191,0.0,12.0,71,0.00,,,0.00,,2013-08-03 15:02:00,
2013-08-03 11:12:00,71.0,61.0,29.80,West,271,0.0,5.0,70,0.00,,,0.00,,2013-08-03 15:12:00,
2013-08-03 11:23:00,72.0,60.0,29.80,West,260,8.0,13.0,67,0.00,,,0.00,,2013-08-03 15:23:00,
2013-08-03 11:32:00,73.0,61.0,29.80,West,266,1.0,5.0,65,0.00,,,0.00,,2013-08-03 15:32:00,
2013-08-03 11:43:00,73.0,61.0,29.80,WSW,257,2.0,5.0,66,0.00,,,0.00,,2013-08-03 15:43:00,
2013-08-03 11:53:00,73.0,60.0,29.79,West,271,3.0,7.0,64,0.00,,,0.00,,2013-08-03 15:53:00,
2013-08-03 12:02:00,73.0,60.0,29.79,West,273,3.0,7.0,64,0.00,,,0.00,,2013-08-03 16:02:00,
2013-08-03 12:13:00,74.0,62.0,29.79,WSW,254,0.0,10.0,66,0.00,,,0.00,,2013-08-03 16:13:00,
2013-08-03 12:23:00,74.0,61.0,29.79,WSW,257,1.0,10.0,63,0.00,,,0.00,,2013-08-03 16:23:00,
2013-08-03 12:33:00,74.0,60.0,29.79,WNW,287,1.0,11.0,61,0.00,,,0.00,,2013-08-03 16:33:00,
2013-08-03 12:43:00,75.0,60.0,29.78,WSW,251,1.0,6.0,59,0.00,,,0.00,,2013-08-03 16:43:00,
2013-08-03 12:53:00,76.0,61.0,29.78,West,274,2.0,7.0,60,0.00,,,0.00,,2013-08-03 16:53:00,
2013-08-03 13:03:00,76.0,63.0,29.78,WNW,284,1.0,3.0,65,0.00,,,0.00,,2013-08-03 17:03:00,
2013-08-03 13:12:00,75.0,62.0,29.78,West,264,1.0,5.0,64,0.00,,,0.00,,2013-08-03 17:12:00,
2013-08-03 13:22:00,76.0,63.0,29.78,WSW,242,1.0,4.0,64,0.00,,,0.00,,2013-08-03 17:22:00,
2013-08-03 13:32:00,76.0,62.0,29.78,NNW,334,2.0,3.0,61,0.00,,,0.00,,2013-08-03 17:32:00,
2013-08-03 13:43:00,75.0,60.0,29.77,West,261,4.0,10.0,59,0.00,,,0.00,,2013-08-03 17:43:00,
2013-08-03 13:52:00,76.0,62.0,29.77,West,261,4.0,7.0,61,0.00,,,0.00,,2013-08-03 17:52:00,
2013-08-03 14:02:00,78.0,62.0,29.78,NW,313,3.0,6.0,58,0.00,,,0.00,,2013-08-03 18:02:00,
2013-08-03 14:12:00,78.0,62.0,29.78,West,269,1.0,6.0,59,0.00,,,0.00,,2013-08-03 18:12:00,
2013-08-03 14:22:00,77.0,59.0,29.77,WSW,254,6.0,14.0,54,0.00,,,0.00,,2013-08-03 18:22:00,
2013-08-03 14:32:00,77.0,59.0,29.77,West,262,1.0,6.0,53,0.00,,,0.00,,2013-08-03 18:32:00,
2013-08-03 14:43:00,78.0,59.0,29.77,NNE,15,2.0,6.0,53,0.00,,,0.00,,2013-08-03 18:43:00,
2013-08-03 14:53:00,78.0,58.0,29.77,North,9,3.0,10.0,50,0.00,,,0.00,,2013-08-03 18:53:00,
2013-08-03 15:03:00,78.0,59.0,29.77,WSW,253,0.0,7.0,53,0.00,,,0.00,,2013-08-03 19:03:00,
2013-08-03 15:12:00,80.0,61.0,29.77,West,275,2.0,7.0,52,0.00,,,0.00,,2013-08-03 19:12:00,
2013-08-03 15:22:00,80.0,59.0,29.76,NNW,346,2.0,6.0,49,0.00,,,0.00,,2013-08-03 19:22:00,
2013-08-03 15:32:00,79.0,60.0,29.77,WSW,253,1.0,10.0,53,0.00,,,0.00,,2013-08-03 19:32:00,
2013-08-03 15:43:00,79.0,59.0,29.77,NNE,22,3.0,6.0,51,0.00,,,0.00,,2013-08-03 19:43:00,
2013-08-03 15:52:00,80.0,59.0,29.76,NNE,25,1.0,9.0,48,0.00,,,0.00,,2013-08-03 19:52:00,
2013-08-03 16:02:00,80.0,57.0,29.77,West,276,2.0,7.0,46,0.00,,,0.00,,2013-08-03 20:02:00,
2013-08-03 16:12:00,80.0,57.0,29.77,West,260,2.0,10.0,45,0.00,,,0.00,,2013-08-03 20:12:00,
2013-08-03 16:32:00,81.0,57.0,29.76,SW,221,0.0,7.0,44,0.00,,,0.00,,2013-08-03 20:32:00,
2013-08-03 16:42:00,80.0,58.0,29.76,WSW,256,1.0,7.0,47,0.00,,,0.00,,2013-08-03 20:42:00,
2013-08-03 16:52:00,80.0,57.0,29.76,WSW,258,0.0,5.0,45,0.00,,,0.00,,2013-08-03 20:52:00,
2013-08-03 17:02:00,80.0,55.0,29.77,NNW,336,0.0,13.0,43,0.00,,,0.00,,2013-08-03 21:02:00,
2013-08-03 17:12:00,80.0,57.0,29.77,SW,236,1.0,14.0,45,0.00,,,0.00,,2013-08-03 21:12:00,
2013-08-03 17:22:00,80.0,58.0,29.77,NW,323,1.0,4.0,47,0.00,,,0.00,,2013-08-03 21:22:00,
2013-08-03 17:32:00,79.0,58.0,29.76,West,262,0.0,5.0,48,0.00,,,0.00,,2013-08-03 21:32:00,
2013-08-03 17:42:00,79.0,57.0,29.76,West,259,5.0,9.0,47,0.00,,,0.00,,2013-08-03 21:42:00,
2013-08-03 17:52:00,78.0,57.0,29.77,West,275,1.0,5.0,49,0.00,,,0.00,,2013-08-03 21:52:00,
2013-08-03 18:02:00,79.0,58.0,29.77,West,274,1.0,3.0,49,0.00,,,0.00,,2013-08-03 22:02:00,
2013-08-03 18:12:00,78.0,57.0,29.77,WSW,257,1.0,4.0,49,0.00,,,0.00,,2013-08-03 22:12:00,
2013-08-03 18:22:00,78.0,58.0,29.78,WNW,286,0.0,6.0,50,0.00,,,0.00,,2013-08-03 22:22:00,
2013-08-03 18:33:00,78.0,58.0,29.78,West,265,0.0,6.0,51,0.00,,,0.00,,2013-08-03 22:33:00,
2013-08-03 18:43:00,77.0,57.0,29.78,West,263,1.0,5.0,50,0.00,,,0.00,,2013-08-03 22:43:00,
2013-08-03 18:52:00,76.0,58.0,29.78,WSW,254,1.0,13.0,53,0.00,,,0.00,,2013-08-03 22:52:00,
2013-08-03 19:02:00,76.0,58.0,29.78,WSW,252,1.0,9.0,53,0.00,,,0.00,,2013-08-03 23:02:00,
2013-08-03 19:12:00,75.0,58.0,29.78,West,272,2.0,5.0,55,0.00,,,0.00,,2013-08-03 23:12:00,
2013-08-03 19:22:00,74.0,57.0,29.78,West,270,0.0,3.0,56,0.00,,,0.00,,2013-08-03 23:22:00,
2013-08-03 19:32:00,74.0,58.0,29.78,West,269,0.0,3.0,58,0.00,,,0.00,,2013-08-03 23:32:00,
2013-08-03 19:43:00,72.0,56.0,29.78,West,269,0.0,3.0,57,0.00,,,0.00,,2013-08-03 23:43:00,
2013-08-03 19:52:00,71.0,55.0,29.78,West,268,0.0,4.0,58,0.00,,,0.00,,2013-08-03 23:52:00,
2013-08-03 20:03:00,71.0,56.0,29.78,West,268,0.0,2.0,59,0.00,,,0.00,,2013-08-04 00:03:00,
2013-08-03 20:12:00,70.0,56.0,29.78,West,268,0.0,3.0,61,0.00,,,0.00,,2013-08-04 00:12:00,
2013-08-03 20:22:00,70.0,56.0,29.79,West,269,0.0,1.0,62,0.00,,,0.00,,2013-08-04 00:22:00,
2013-08-03 20:32:00,69.0,56.0,29.80,West,269,1.0,3.0,63,0.00,,,0.00,,2013-08-04 00:32:00,
2013-08-03 20:42:00,69.0,56.0,29.80,West,268,0.0,3.0,63,0.00,,,0.00,,2013-08-04 00:42:00,
2013-08-03 20:53:00,69.0,56.0,29.80,West,268,0.0,3.0,63,0.00,,,0.00,,2013-08-04 00:53:00,
2013-08-03 21:02:00,69.0,57.0,29.80,West,269,1.0,3.0,65,0.00,,,0.00,,2013-08-04 01:02:00,
2013-08-03 21:12:00,68.0,56.0,29.80,West,268,1.0,3.0,65,0.00,,,0.00,,2013-08-04 01:12:00,
2013-08-03 21:22:00,69.0,57.0,29.80,West,271,0.0,3.0,65,0.00,,,0.00,,2013-08-04 01:22:00,
2013-08-03 21:32:00,69.0,57.0,29.80,West,268,1.0,4.0,65,0.00,,,0.00,,2013-08-04 01:32:00,
2013-08-03 21:42:00,69.0,56.0,29.80,WSW,255,3.0,11.0,64,0.00,,,0.00,,2013-08-04 01:42:00,
2013-08-03 21:53:00,69.0,56.0,29.81,West,265,2.0,10.0,64,0.00,,,0.00,,2013-08-04 01:53:00,
2013-08-03 22:03:00,69.0,56.0,29.81,West,269,0.0,10.0,64,0.00,,,0.00,,2013-08-04 02:03:00,
2013-08-03 22:12:00,69.0,56.0,29.81,West,269,2.0,6.0,63,0.00,,,0.00,,2013-08-04 02:12:00,
2013-08-03 22:22:00,69.0,56.0,29.82,West,265,1.0,6.0,63,0.00,,,0.00,,2013-08-04 02:22:00,
2013-08-03 22:32:00,69.0,56.0,29.82,WNW,296,2.0,4.0,63,0.00,,,0.00,,2013-08-04 02:32:00,
2013-08-03 22:42:00,68.0,55.0,29.83,WSW,257,1.0,7.0,63,0.00,,,0.00,,2013-08-04 02:42:00,
2013-08-03 22:52:00,68.0,55.0,29.83,WSW,246,1.0,9.0,63,0.00,,,0.00,,2013-08-04 02:52:00,
2013-08-03 23:02:00,68.0,55.0,29.83,West,261,1.0,6.0,64,0.00,,,0.00,,2013-08-04 03:02:00,
2013-08-03 23:12:00,67.0,54.0,29.83,WNW,284,1.0,6.0,64,0.00,,,0.00,,2013-08-04 03:12:00,
2013-08-03 23:22:00,67.0,54.0,29.83,West,261,3.0,5.0,64,0.00,,,0.00,,2013-08-04 03:22:00,
2013-08-03 23:32:00,67.0,55.0,29.82,West,264,2.0,10.0,65,0.00,,,0.00,,2013-08-04 03:32:00,
2013-08-03 23:42:00,67.0,55.0,29.82,West,264,2.0,10.0,65,0.00,,,0.00,,2013-08-04 03:42:00,
2013-08-03 23:52:00,67.0,56.0,29.81,West,267,7.0,12.0,67,0.00,,,0.00,,2013-08-04 03:52:00,